When you browse on this site, cookies collect data to enhance your experience and personalize the content and advertising you see.
Visit our Privacy Policy to learn more. By continuing to use the site, you agree to this use of cookies and data.
  • In Romania
  • List of Countries
  • For 7 days
  • Water Temperature
  • Satellite Maps
  • Weather Map
  • Weather Widgets
  • user-avatar
    Login

    Hourly Weather Samarskiy

    Today, 21 May, Tuesday

    Time Temperature Precipitation Wind Pressure Humidity
    00:00 +5°C° 0 mm 2 mps 755 mmHg 72%
    01:00 +5°C° 0 mm 2 mps 755 mmHg 73%
    02:00 +4°C° 0 mm 3 mps 755 mmHg 75%
    03:00 +3°C° 0 mm 3 mps 755 mmHg 77%
    04:00 +4°C° 0 mm 3 mps 755 mmHg 74%
    05:00 +5°C° 0 mm 3 mps 755 mmHg 72%
    06:00 +7°C° 0 mm 3 mps 756 mmHg 69%
    07:00 +8°C° 0 mm 4 mps 756 mmHg 62%
    08:00 +11°C° 0 mm 4 mps 756 mmHg 55%
    09:00 +12°C° 0 mm 5 mps 756 mmHg 48%
    10:00 +13°C° 0 mm 5 mps 756 mmHg 46%
    11:00 +13°C° 0 mm 4 mps 756 mmHg 45%
    12:00 +13°C° 0 mm 4 mps 756 mmHg 43%
    13:00 +14°C° 0 mm 4 mps 756 mmHg 43%
    14:00 +14°C° 0 mm 4 mps 756 mmHg 42%
    15:00 +15°C° 0 mm 4 mps 756 mmHg 41%
    16:00 +14°C° 0 mm 4 mps 756 mmHg 45%
    17:00 +14°C° 0 mm 3 mps 756 mmHg 48%
    18:00 +15°C° 0 mm 2 mps 756 mmHg 52%
    19:00 +13°C° 0 mm 2 mps 756 mmHg 54%
    20:00 +12°C° 0 mm 2 mps 756 mmHg 57%
    21:00 +9°C° 0 mm 2 mps 756 mmHg 60%
    22:00 +9°C° 0 mm 2 mps 756 mmHg 61%
    23:00 +9°C° 0 mm 2 mps 756 mmHg 63%

    Tomorrow, 22 May, Wednesday

    Time Temperature Precipitation Wind Pressure Humidity
    00:00 +8°C° 0 mm 3 mps 756 mmHg 64%
    01:00 +8°C° 0 mm 3 mps 756 mmHg 64%
    02:00 +8°C° 0 mm 3 mps 756 mmHg 63%
    03:00 +8°C° 0 mm 3 mps 755 mmHg 63%
    04:00 +9°C° 0 mm 3 mps 755 mmHg 64%
    05:00 +10°C° 0 mm 3 mps 755 mmHg 64%
    06:00 +10°C° 0 mm 4 mps 755 mmHg 64%
    07:00 +11°C° 0.4 mm 3 mps 755 mmHg 67%
    08:00 +12°C° 0.4 mm 2 mps 754 mmHg 69%
    09:00 +12°C° 0.4 mm 2 mps 754 mmHg 71%
    10:00 +12°C° 0.6 mm 2 mps 754 mmHg 74%
    11:00 +12°C° 0.6 mm 1 mps 753 mmHg 77%
    12:00 +12°C° 0.6 mm 1 mps 753 mmHg 80%
    13:00 +15°C° 0.1 mm 2 mps 752 mmHg 73%
    14:00 +18°C° 0.1 mm 3 mps 752 mmHg 65%
    15:00 +20°C° 0.1 mm 3 mps 751 mmHg 58%
    16:00 +19°C° 0.5 mm 3 mps 751 mmHg 65%
    17:00 +18°C° 0.5 mm 3 mps 751 mmHg 72%
    18:00 +17°C° 0.5 mm 3 mps 750 mmHg 79%
    19:00 +16°C° 0 mm 3 mps 750 mmHg 80%
    20:00 +16°C° 0 mm 3 mps 750 mmHg 81%
    21:00 +14°C° 0 mm 4 mps 750 mmHg 81%
    22:00 +14°C° 0 mm 4 mps 750 mmHg 80%
    23:00 +13°C° 0 mm 4 mps 750 mmHg 78%

    Day after tomorrow, 23 May, Thursday

    Time Temperature Precipitation Wind Pressure Humidity
    00:00 +13°C° 0 mm 5 mps 749 mmHg 76%
    01:00 +13°C° 0 mm 5 mps 749 mmHg 77%
    02:00 +12°C° 0 mm 5 mps 749 mmHg 77%
    03:00 +12°C° 0 mm 5 mps 749 mmHg 78%
    04:00 +13°C° 0 mm 5 mps 749 mmHg 77%
    05:00 +13°C° 0 mm 5 mps 748 mmHg 75%
    06:00 +14°C° 0 mm 5 mps 748 mmHg 74%
    07:00 +16°C° 0 mm 6 mps 748 mmHg 67%
    08:00 +19°C° 0 mm 6 mps 748 mmHg 60%
    09:00 +21°C° 0 mm 7 mps 747 mmHg 52%
    10:00 +21°C° 0 mm 7 mps 747 mmHg 49%
    11:00 +22°C° 0 mm 8 mps 747 mmHg 46%
    12:00 +23°C° 0 mm 8 mps 746 mmHg 42%
    13:00 +23°C° 0 mm 8 mps 746 mmHg 43%
    14:00 +23°C° 0 mm 8 mps 746 mmHg 43%
    15:00 +23°C° 0 mm 8 mps 746 mmHg 43%
    16:00 +22°C° 0 mm 7 mps 745 mmHg 47%
    17:00 +21°C° 0 mm 6 mps 745 mmHg 51%
    18:00 +20°C° 0 mm 5 mps 745 mmHg 55%
    19:00 +19°C° 0 mm 5 mps 745 mmHg 54%
    20:00 +17°C° 0 mm 5 mps 745 mmHg 53%
    21:00 +17°C° 0 mm 5 mps 744 mmHg 52%
    22:00 +16°C° 0.4 mm 5 mps 744 mmHg 58%
    23:00 +15°C° 0.4 mm 4 mps 744 mmHg 64%

    24 May, Friday

    Time Temperature Precipitation Wind Pressure Humidity
    00:00 +15°C° 0.4 mm 4 mps 744 mmHg 70%
    01:00 +14°C° 0.2 mm 4 mps 745 mmHg 76%
    02:00 +13°C° 0.2 mm 4 mps 745 mmHg 83%
    03:00 +12°C° 0.2 mm 4 mps 745 mmHg 90%
    04:00 +12°C° 0 mm 4 mps 746 mmHg 85%
    05:00 +12°C° 0 mm 4 mps 746 mmHg 79%
    06:00 +12°C° 0 mm 4 mps 747 mmHg 74%
    07:00 +13°C° 0 mm 4 mps 747 mmHg 67%
    08:00 +14°C° 0 mm 4 mps 748 mmHg 59%
    09:00 +15°C° 0 mm 4 mps 749 mmHg 52%
    10:00 +15°C° 0 mm 4 mps 749 mmHg 48%
    11:00 +17°C° 0 mm 4 mps 749 mmHg 45%
    12:00 +18°C° 0 mm 4 mps 749 mmHg 41%
    13:00 +18°C° 0 mm 4 mps 749 mmHg 41%
    14:00 +18°C° 0 mm 4 mps 750 mmHg 42%
    15:00 +18°C° 0 mm 3 mps 750 mmHg 42%
    16:00 +17°C° 0 mm 3 mps 750 mmHg 46%
    17:00 +17°C° 0 mm 3 mps 750 mmHg 50%
    18:00 +16°C° 0 mm 3 mps 750 mmHg 54%
    19:00 +13°C° 0 mm 3 mps 751 mmHg 57%
    20:00 +12°C° 0 mm 3 mps 751 mmHg 60%
    21:00 +10°C° 0 mm 3 mps 752 mmHg 62%
    22:00 +10°C° 0 mm 2 mps 752 mmHg 63%
    23:00 +9°C° 0 mm 2 mps 752 mmHg 64%

    25 May, Saturday

    Time Temperature Precipitation Wind Pressure Humidity
    00:00 +8°C° 0 mm 2 mps 752 mmHg 65%
    01:00 +8°C° 0 mm 2 mps 752 mmHg 66%
    02:00 +7°C° 0 mm 2 mps 752 mmHg 67%
    03:00 +8°C° 0 mm 1 mps 753 mmHg 68%
    04:00 +8°C° 0 mm 2 mps 753 mmHg 67%
    05:00 +9°C° 0 mm 2 mps 753 mmHg 65%
    06:00 +10°C° 0 mm 2 mps 753 mmHg 64%
    07:00 +12°C° 0 mm 2 mps 753 mmHg 58%
    08:00 +14°C° 0 mm 2 mps 754 mmHg 53%
    09:00 +14°C° 0 mm 3 mps 754 mmHg 47%
    10:00 +16°C° 0 mm 3 mps 753 mmHg 44%
    11:00 +17°C° 0 mm 2 mps 753 mmHg 41%
    12:00 +18°C° 0 mm 2 mps 753 mmHg 38%
    13:00 +19°C° 0 mm 2 mps 753 mmHg 38%
    14:00 +19°C° 0 mm 2 mps 752 mmHg 37%
    15:00 +20°C° 0 mm 2 mps 752 mmHg 37%
    16:00 +20°C° 0 mm 2 mps 752 mmHg 41%
    17:00 +19°C° 0 mm 3 mps 752 mmHg 46%
    18:00 +19°C° 0 mm 3 mps 752 mmHg 51%
    19:00 +17°C° 0 mm 3 mps 752 mmHg 53%
    20:00 +16°C° 0 mm 3 mps 752 mmHg 56%
    21:00 +13°C° 0 mm 4 mps 752 mmHg 58%
    22:00 +13°C° 0 mm 4 mps 752 mmHg 58%
    23:00 +12°C° 0 mm 4 mps 751 mmHg 57%

    26 May, Sunday

    Time Temperature Precipitation Wind Pressure Humidity
    00:00 +12°C° 0 mm 4 mps 751 mmHg 56%
    01:00 +12°C° 0 mm 4 mps 751 mmHg 55%
    02:00 +12°C° 0 mm 4 mps 751 mmHg 55%
    03:00 +12°C° 0 mm 4 mps 751 mmHg 54%
    04:00 +13°C° 0 mm 5 mps 751 mmHg 57%
    05:00 +13°C° 0 mm 5 mps 750 mmHg 59%
    06:00 +14°C° 0 mm 5 mps 750 mmHg 62%
    07:00 +16°C° 0 mm 5 mps 750 mmHg 61%
    08:00 +19°C° 0 mm 5 mps 749 mmHg 60%
    09:00 +21°C° 0 mm 5 mps 749 mmHg 59%
    10:00 +22°C° 0 mm 6 mps 748 mmHg 53%
    11:00 +24°C° 0 mm 7 mps 748 mmHg 47%
    12:00 +27°C° 0 mm 7 mps 748 mmHg 41%
    13:00 +24°C° 0.1 mm 6 mps 747 mmHg 47%
    14:00 +23°C° 0.1 mm 5 mps 747 mmHg 52%
    15:00 +21°C° 0.1 mm 5 mps 747 mmHg 58%
    16:00 +21°C° 0 mm 5 mps 747 mmHg 62%
    17:00 +21°C° 0 mm 5 mps 747 mmHg 66%
    18:00 +20°C° 0 mm 5 mps 746 mmHg 70%
    19:00 +19°C° 0.1 mm 4 mps 746 mmHg 72%
    20:00 +18°C° 0.1 mm 4 mps 746 mmHg 74%
    21:00 +17°C° 0.1 mm 4 mps 746 mmHg 76%
    22:00 +17°C° 0.1 mm 4 mps 745 mmHg 78%
    23:00 +17°C° 0.1 mm 4 mps 745 mmHg 79%
    Show more